WZZ874 EGKK-LKPR

Flight info

Callsign WZZ874
Flight time N/A
Altitude 37000
Route FRANE M604 GASBA M197 REDFA DCT TACHA DCT MISGO DCT EKSAK DCT SWALM DCT GASKA DCT TONSU Z35 ODOMO DCT LOMKI
Aircraft A21N/M-SDE2E3FGHIRWXY/LB1

Departure

Time 2026-05-06 18:20
Airport London Gatwick Airport (EGKK)

Arrival

Time N/A
Airport Václav Havel Airport Prague (LKPR)
Time Latitude Longitude Altitude Speed Heading
2026-05-06 17:23 51.15364 -0.16340 207 ft 0 kts 356°
2026-05-06 17:38 51.15349 -0.16339 209 ft 2 kts 355°
2026-05-06 17:38 51.15332 -0.16336 211 ft 2 kts 354°
2026-05-06 17:38 51.15321 -0.16322 207 ft 2 kts 276°
2026-05-06 17:39 51.15322 -0.16296 216 ft 2 kts 257°
2026-05-06 17:39 51.15323 -0.16287 215 ft 0 kts 256°
2026-05-06 17:47 51.15320 -0.16307 207 ft 5 kts 257°
2026-05-06 17:48 51.15310 -0.16384 213 ft 8 kts 257°
2026-05-06 17:48 51.15314 -0.16456 211 ft 6 kts 315°
2026-05-06 17:48 51.15352 -0.16482 209 ft 6 kts 345°
2026-05-06 17:48 51.15396 -0.16499 207 ft 7 kts 341°
2026-05-06 17:49 51.15413 -0.16563 217 ft 8 kts 264°
2026-05-06 17:49 51.15396 -0.16667 213 ft 12 kts 257°
2026-05-06 17:49 51.15376 -0.16811 215 ft 15 kts 258°
2026-05-06 17:49 51.15367 -0.16881 209 ft 15 kts 258°
2026-05-06 17:50 51.15345 -0.17039 218 ft 14 kts 258°
2026-05-06 17:50 51.15323 -0.17193 209 ft 14 kts 256°
2026-05-06 17:50 51.15306 -0.17351 211 ft 14 kts 263°
2026-05-06 17:50 51.15292 -0.17508 210 ft 14 kts 258°
2026-05-06 17:51 51.15271 -0.17660 215 ft 14 kts 258°
2026-05-06 17:51 51.15250 -0.17818 207 ft 16 kts 258°
2026-05-06 17:51 51.15225 -0.17997 215 ft 17 kts 257°
2026-05-06 17:51 51.15198 -0.18200 211 ft 20 kts 260°
2026-05-06 17:52 51.15171 -0.18433 216 ft 22 kts 257°
2026-05-06 17:52 51.15136 -0.18686 208 ft 24 kts 257°
2026-05-06 17:52 51.15098 -0.18960 210 ft 26 kts 257°
2026-05-06 17:52 51.15059 -0.19248 207 ft 27 kts 257°
2026-05-06 17:53 51.15020 -0.19536 209 ft 26 kts 257°
2026-05-06 17:53 51.14981 -0.19815 213 ft 25 kts 258°
2026-05-06 17:53 51.14944 -0.20086 209 ft 25 kts 258°
2026-05-06 17:53 51.14907 -0.20355 208 ft 25 kts 257°
2026-05-06 17:54 51.14871 -0.20618 215 ft 24 kts 258°
2026-05-06 17:54 51.14838 -0.20855 211 ft 19 kts 257°
2026-05-06 17:54 51.14813 -0.21031 211 ft 8 kts 257°
2026-05-06 17:54 51.14809 -0.21060 212 ft 0 kts 257°
2026-05-06 17:56 51.14808 -0.21062 212 ft 0 kts 257°
2026-05-06 17:56 51.14808 -0.21066 211 ft 2 kts 257°
2026-05-06 17:56 51.14806 -0.21080 213 ft 3 kts 257°
2026-05-06 17:56 51.14801 -0.21114 215 ft 6 kts 257°
2026-05-06 17:57 51.14785 -0.21177 196 ft 6 kts 250°
2026-05-06 17:57 51.14783 -0.21190 218 ft 0 kts 254°
2026-05-06 17:57 51.14778 -0.21216 210 ft 6 kts 254°
2026-05-06 17:58 51.14773 -0.21255 207 ft 0 kts 258°
2026-05-06 18:05 51.14772 -0.21266 207 ft 3 kts 258°
2026-05-06 18:06 51.14764 -0.21329 207 ft 7 kts 258°
2026-05-06 18:06 51.14761 -0.21351 207 ft 0 kts 256°
2026-05-06 18:09 51.14760 -0.21352 207 ft 1 kts 256°
2026-05-06 18:09 51.14757 -0.21368 218 ft 2 kts 249°
2026-05-06 18:09 51.14738 -0.21396 212 ft 5 kts 204°
2026-05-06 18:09 51.14730 -0.21399 213 ft 0 kts 189°
2026-05-06 18:15 51.14720 -0.21399 213 ft 4 kts 178°
2026-05-06 18:15 51.14683 -0.21368 209 ft 7 kts 144°
2026-05-06 18:15 51.14636 -0.21331 210 ft 9 kts 168°
2026-05-06 18:15 51.14615 -0.21325 214 ft 0 kts 169°
2026-05-06 18:17 51.14603 -0.21321 211 ft 5 kts 168°
2026-05-06 18:17 51.14541 -0.21267 210 ft 15 kts 131°
2026-05-06 18:17 51.14530 -0.21095 211 ft 16 kts 77°
2026-05-06 18:18 51.14535 -0.21060 209 ft 0 kts 77°
2026-05-06 18:18 51.14540 -0.21028 217 ft 18 kts 77°
2026-05-06 18:18 51.14612 -0.20522 218 ft 74 kts 77°
2026-05-06 18:19 51.14759 -0.19432 213 ft 131 kts 78°
2026-05-06 18:19 51.14966 -0.17778 311 ft 163 kts 79°
2026-05-06 18:19 51.15187 -0.15936 583 ft 181 kts 78°
2026-05-06 18:19 51.15464 -0.13862 720 ft 201 kts 77°
2026-05-06 18:20 51.15779 -0.11616 989 ft 214 kts 76°
2026-05-06 18:20 51.16106 -0.09267 1478 ft 219 kts 77°
2026-05-06 18:20 51.16432 -0.06891 2015 ft 222 kts 77°
2026-05-06 18:20 51.16752 -0.04367 2281 ft 245 kts 82°
2026-05-06 18:21 51.16822 -0.01579 2939 ft 255 kts 90°
2026-05-06 18:21 51.16776 0.01271 3713 ft 259 kts 90°
2026-05-06 18:21 51.16713 0.04164 4437 ft 263 kts 92°
2026-05-06 18:21 51.16650 0.07110 5093 ft 269 kts 92°
2026-05-06 18:22 51.16590 0.10060 5844 ft 270 kts 92°
2026-05-06 18:22 51.16529 0.13071 6551 ft 272 kts 92°
2026-05-06 18:22 51.16495 0.16102 6893 ft 276 kts 90°
2026-05-06 18:22 51.16493 0.19174 6963 ft 277 kts 90°
2026-05-06 18:23 51.16500 0.22247 6972 ft 278 kts 90°
2026-05-06 18:23 51.16506 0.25332 6968 ft 278 kts 90°
2026-05-06 18:23 51.16513 0.28415 6961 ft 278 kts 90°
2026-05-06 18:23 51.16518 0.31466 6966 ft 278 kts 90°
2026-05-06 18:24 51.16521 0.34556 6968 ft 278 kts 90°
2026-05-06 18:24 51.16525 0.37643 7123 ft 280 kts 89°
2026-05-06 18:24 51.16774 0.40725 7681 ft 283 kts 73°
2026-05-06 18:24 51.17612 0.43539 8465 ft 281 kts 51°
2026-05-06 18:25 51.18974 0.45515 9197 ft 279 kts 32°
2026-05-06 18:25 51.19519 0.46059 9456 ft 279 kts 28°
2026-05-06 18:25 51.21273 0.47396 10151 ft 282 kts 20°
2026-05-06 18:26 51.23175 0.48468 10476 ft 299 kts 17°
2026-05-06 18:26 51.25238 0.49457 10748 ft 318 kts 15°
2026-05-06 18:26 51.27428 0.50471 11007 ft 336 kts 16°
2026-05-06 18:26 51.29732 0.51567 11262 ft 354 kts 16°
2026-05-06 18:27 51.32099 0.52738 11582 ft 367 kts 17°
2026-05-06 18:27 51.34559 0.53997 12101 ft 375 kts 17°
2026-05-06 18:27 51.37054 0.55305 12696 ft 379 kts 17°
2026-05-06 18:27 51.39571 0.56643 13346 ft 382 kts 18°
2026-05-06 18:28 51.42100 0.57997 13952 ft 386 kts 18°
2026-05-06 18:28 51.44664 0.59373 14498 ft 390 kts 18°
2026-05-06 18:28 51.47250 0.60762 15046 ft 393 kts 18°
2026-05-06 18:28 51.49861 0.62164 15600 ft 397 kts 18°
2026-05-06 18:29 51.52490 0.63576 16147 ft 400 kts 17°
2026-05-06 18:29 51.55140 0.65000 16684 ft 404 kts 18°
2026-05-06 18:29 51.57819 0.66441 17213 ft 407 kts 18°
2026-05-06 18:29 51.60512 0.67890 17751 ft 410 kts 18°
2026-05-06 18:30 51.63238 0.69360 18255 ft 414 kts 18°